Location: Baix
(44.7118°N, 4.7648°E)
Time: 05:52:40
(UTC+00:00)

Vanguard 1 - Pass Details

Date: 02 December 2020
Orbit: 648 x 3834 km, 34.3° (Epoch: 21 January)

Event Time Altitude Azimuth Distance (km) Brightness Sun altitude
Rises 07:18:19 0° 263° (W) 3,873 12.7 2.0°
Reaches altitude 10° 07:20:41 10° 255° (WSW) 3,187 12.3 2.3°
Maximum altitude 07:28:12 40° 188° (S) 2,413 12.4 3.4°
Drops below altitude 10° 07:41:16 10° 126° (SE) 5,499 17.0 5.3°
Sets 07:46:56 0° 121° (ESE) 7,006 16.8 6.1°
